Weather History for Poplar Bluff, MO

Change the Weather History Date:

Saturday, September 21, 2013

  Actual Average Record
Temperature  
Mean Temperature 68 °F -  
Max Temperature 78 °F 79 °F 98 °F (1955)
Min Temperature 57 °F 56 °F 35 °F (1927)
Cooling Degree Days 2    
Growing Degree Days 18 (Base 50)    
Moisture  
Dew Point 54 °F    
Average Humidity 68    
Maximum Humidity 87    
Minimum Humidity 39    
Precipitation  
Precipitation 0.00 in - - ()
Sea Level Pressure  
Sea Level Pressure 29.90 in    
Wind  
Wind Speed 7 mph (NNW)    
Max Wind Speed 12 mph    
Max Gust Speed 17 mph    
Visibility 10 miles    
Events      
Averages and records for this station are not official NWS values.
T = Trace of Precipitation, MM = Missing Value Source: NWS Daily Summary

Daily Weather History Graph

Daily Weather History Graph

Search for Another Location

Airport:

Trip Planner

Search our weather history database for the weather conditions in past years. The results will help you decide how hot, cold, wet, or windy it might be!

Date:

Astronomy

Sep. 21, 2013 Rise Set
Actual Time 6:48 AM CDT 6:59 PM CDT
Civil Twilight 6:22 AM CDT 7:25 PM CDT
Nautical Twilight 5:52 AM CDT 7:55 PM CDT
Astronomical Twilight 5:21 AM CDT 8:25 PM CDT
Moon 8:15 PM CDT 9:02 AM CDT
Length of Visible Light 13h 02m
Length of Day
12h 10m
Waning Gibbous, 94% of the Moon is Illuminated
Sep 21
Waning Gibbous
Sep 26
Last Quarter
Oct 4
New
Oct 11
First Quarter
Oct 18
Full

Hourly Weather History & Observations

Time (CDT) Temp. Dew Point Humidity Pressure Visibility Wind Dir Wind Speed Gust Speed Precip Events Conditions
12:53 AM 66.9 °F 63.0 °F 87% 29.86 in 10.0 mi NNW 8.1 mph - N/A   Overcast
1:53 AM 64.9 °F 60.1 °F 84% 29.86 in 10.0 mi NNW 8.1 mph - N/A   Clear
2:53 AM 63.0 °F 57.9 °F 84% 29.87 in 10.0 mi North 5.8 mph - N/A   Clear
3:53 AM 61.0 °F 55.9 °F 83% 29.87 in 10.0 mi NNW 6.9 mph - N/A   Clear
4:53 AM 60.1 °F 54.0 °F 80% 29.88 in 10.0 mi NNW 8.1 mph - N/A   Clear
5:53 AM 57.9 °F 54.0 °F 87% 29.90 in 10.0 mi NNW 5.8 mph - N/A   Clear
6:53 AM 57.0 °F 53.1 °F 87% 29.92 in 10.0 mi NW 4.6 mph - N/A   Clear
7:53 AM 59.0 °F 53.1 °F 81% 29.93 in 10.0 mi NNW 5.8 mph - N/A   Clear
8:53 AM 64.0 °F 55.0 °F 73% 29.94 in 10.0 mi NNW 6.9 mph - N/A   Clear
9:53 AM 69.1 °F 54.0 °F 58% 29.94 in 10.0 mi North 8.1 mph - N/A   Clear
10:53 AM 71.1 °F 54.0 °F 55% 29.94 in 10.0 mi NNW 9.2 mph 16.1 mph N/A   Clear
11:53 AM 73.9 °F 54.0 °F 50% 29.93 in 10.0 mi North 9.2 mph 17.3 mph N/A   Partly Cloudy
12:53 PM 75.0 °F 53.1 °F 46% 29.92 in 10.0 mi Variable 6.9 mph - N/A   Clear
1:53 PM 77.0 °F 52.0 °F 42% 29.89 in 10.0 mi NNW 8.1 mph - N/A   Clear
2:53 PM 78.1 °F 53.1 °F 42% 29.88 in 10.0 mi NNW 11.5 mph 16.1 mph N/A   Clear
3:53 PM 78.1 °F 51.1 °F 39% 29.86 in 10.0 mi North 6.9 mph 16.1 mph N/A   Clear
4:53 PM 77.0 °F 51.1 °F 40% 29.86 in 10.0 mi NNW 10.4 mph - N/A   Clear
5:53 PM 75.9 °F 52.0 °F 43% 29.87 in 10.0 mi NNW 8.1 mph - N/A   Clear
6:53 PM 68.0 °F 54.0 °F 61% 29.88 in 10.0 mi NNW 5.8 mph - N/A   Clear
7:53 PM 63.0 °F 55.9 °F 78% 29.90 in 10.0 mi Calm Calm - N/A   Clear
8:53 PM 60.1 °F 54.0 °F 80% 29.91 in 10.0 mi Calm Calm - N/A   Clear
9:53 PM 57.9 °F 54.0 °F 87% 29.91 in 10.0 mi Calm Calm - N/A   Clear
10:53 PM 57.0 °F 53.1 °F 87% 29.92 in 10.0 mi Calm Calm - N/A   Clear
11:53 PM 57.0 °F 53.1 °F 87% 29.92 in 10.0 mi Calm Calm - N/A   Clear